Location: Laura�t
(43.9341°N, 0.2497°E)
Time: 00:03:51
(UTC+00:00)

Meteor 1-19 Rocket - Pass Details

Date: 03 March 2021
Orbit: 807 x 928 km, 81.2° (Epoch: 17 April)

Event Time Altitude Azimuth Distance (km) Brightness Sun altitude
Rises 18:41:38 0° 350° (N) 3,564 7.6 -10.1°
Reaches altitude 10° 18:44:09 10° 351° (N) 2,606 6.9 -10.5°
Maximum altitude 18:50:07 81° 79° (E) 907 4.3 -11.6°
Drops below altitude 10° 18:55:51 10° 167° (SSE) 2,511 6.5 -12.6°
Sets 18:58:15 0° 169° (SSE) 3,426 7.2 -13.0°
